THORAD DELTA 1 DEB, 8162

Orbit data source: Space-Track

THORAD DELTA 1 DEB, 8162 is space debris in SSO originally from a launch on Fri, 15 Nov 1974 UTC launched from the Air Force Western Test Range (AFWTR). Debris objects in space refer to the collection of defunct objects orbiting the Earth. Examples of debris include non-operational satellites, rocket bodies, and fragments generated from explosions, collisions, or faulty payload assembly.

Loading next visibility...
Identifier
8162, 1974-089AC
Orbit
SSO
Country
Flag of USUS
Related business
Manufacturer
Unknown
Mission
Spacecraft
Bus & Motor
Unknown
Mass
Unknown
Launch date (UTC)
1974-11-15 (51 years ago)
Launch vehicle
Unknown
Launch site
Air Force Western Test Range (AFWTR)
Object type
Payload
Rocket body
Debris
Shape & HBR
Unknown shape, 0.1 m
Radar Cross Section
Small (<0.1 m²)

Expand to show TLE details & history
Last TLE update: 4 days ago

TLE from 4 days ago
0 THORAD DELTA 1 DEB
1 08162U 74089AC  25287.63777819  .00001491  00000-0  95292-2 0  9991
2 08162 100.8015 173.4110 0170722 330.5336  56.3802 12.50111145289142
Epoch: 2025-10-14T15:18Z
TLE epoch observation values (Epoch: 2025-10-14T15:18:24.035Z)
Latitude
28.05237°
Longitude
-85.41863°
Altitude
1,394.692 km
Speed
7.198 km/s
True Right ascension
11h 10m 25s
True Declination
27° 55' 18"
Sunlit
Object was in daylight at epoch
Visualization orbit readout
Latitude
Unknown
Longitude
Unknown
Altitude
Unknown
Speed
Unknown
Apparent Right ascension
Unknown
Apparent Declination
Unknown
Sunlit
N/A
Visualization observer readout
Local Sidereal Time
01:58:05
Azimuth
Unknown
Elevation
Unknown
Doppler factor
Unknown
Orbital elements
Apogee altitude
1,595.362 km
Perigee altitude
1,327.682 km
Semi-major axis
7,839.659 km
Eccentricity
0.01707
Inclination
100.8015°
RAAN
173.411°
Arg. of periapsis
330.5336°
True anomaly
58.02854°
Mean anomaly
56.3802°
Eccentric anomaly
57.20244°
Mean motion
3.12678 °/min
Orbital period
115.13 mins
BSTAR
0.0095292
Loading maneuver chart data...
Computing Atmospheric mass density...

Documentation

Showing up to 5 results
|